Location: Waco, TX
(31.5480°N, 97.1670°W)
Time: 21:22:50
(UTC-06:00)

ISS - Pass Details

Date: 09 February 2018
Orbit: 403 x 407 km, 51.6° (Epoch: 18 February)

Event Time Altitude Azimuth Distance (km) Brightness Sun altitude
Rises 12:11:41 0° 211° (SSW) 2,301 0.5 43.3°
Reaches altitude 10° 12:13:49 10° 204° (SSW) 1,446 -0.2 43.4°
Maximum altitude 12:16:54 42° 131° (SE) 581 -1.8 43.5°
Drops below altitude 10° 12:20:00 10° 59° (ENE) 1,452 -1.1 43.6°
Sets 12:22:08 0° 52° (NE) 2,314 -0.2 43.7°
